This demonstration page uses our WeatherBlox Daily Observations layout. Learn more.

Hourly Observations for February 20, 2019

Temp ( °F °C ) Dew Point ( °F °C ) Humidity (%) Winds ( mph kmh ) Pressure ( in mb ) Visibility ( mi km ) Precip ( " mm )
12:15 am 00:15 Cloudy with Light Snow 17 -8.3 17 -8.6 98 98 E 6 9 30.01 1016 1.5 2.41401 0 0
12:35 am 00:35 Cloudy with Light Snow 17 -8.2 17 -8.6 97 97 E 3 6 29.99 1016 1.5 2.41401 0 0
12:55 am 00:55 Cloudy with Light Snow 17 -8.2 17 -8.6 97 97 E 3 6 29.98 1015 1.25 2.011675 0.01 0.254
1:15 am 01:15 Cloudy with Light Snow 17 -8.2 17 -8.6 97 97 Calm 29.98 1015 1.5 2.41401 0 0
1:35 am 01:35 Cloudy with Light Snow 17 -8.2 17 -8.6 97 97 E 5 7 29.97 1015 2 3.21868 0 0
1:55 am 01:55 Cloudy with Light Snow 17 -8.2 17 -8.6 97 97 Calm 29.96 1015 1.5 2.41401 0 0
2:15 am 02:15 Cloudy with Light Snow 17 -8.3 17 -8.6 98 98 Calm 29.96 1014 2.5 4.02335 0 0
2:35 am 02:35 Cloudy with Light Snow 17 -8.5 16 -8.7 98 98 Calm 29.94 1014 1.5 2.41401 0.01 0.254
2:55 am 02:55 Cloudy with Light Snow 17 -8.5 16 -8.9 97 97 Calm 29.93 1013 2.5 4.02335 0.02 0.508
3:15 am 03:15 Cloudy with Light Snow 16 -8.7 16 -9 98 98 Calm 29.92 1013 1.5 2.41401 0 0
3:35 am 03:35 Cloudy with Light Snow 16 -8.8 16 -9.1 98 98 Calm 29.92 1013 1.75 2.816345 0 0
3:55 am 03:55 Cloudy with Light Snow 16 -8.8 16 -9.1 98 98 Calm 29.9 1013 1.5 2.41401 0 0
4:15 am 04:15 Cloudy with Light Snow 16 -9 15 -9.2 98 98 Calm 29.89 1012 1.75 2.816345 0.01 0.254
4:35 am 04:35 Cloudy with Light Snow 15 -9.3 15 -9.6 98 98 Calm 29.89 1012 2.5 4.02335 0.01 0.254
4:55 am 04:55 Cloudy with Light Snow 14 -9.8 14 -10.1 98 98 Calm 29.89 1012 2 3.21868 0.01 0.254
5:15 am 05:15 Cloudy with Light Snow 14 -10.1 13 -10.5 97 97 Calm 29.88 1012 2 3.21868 0 0
5:35 am 05:35 Cloudy with Light Snow 14 -10.1 13 -10.5 97 97 Calm 29.87 1012 2 3.21868 0 0
5:55 am 05:55 Cloudy with Light Snow 14 -9.8 14 -10.1 98 98 Calm 29.86 1011 3 4.82802 0 0
6:15 am 06:15 Cloudy with Light Snow 14 -9.9 14 -10.2 98 98 Calm 29.86 1011 4 6.43736 0 0
6:35 am 06:35 Cloudy with Light Snow 14 -10 13 -10.3 98 98 Calm 29.86 1011 4 6.43736 0 0
6:55 am 06:55 Cloudy with Light Snow 14 -10 14 -10.2 98 98 Calm 29.85 1011 3 4.82802 0 0
7:15 am 07:15 Cloudy with Light Snow 12 -10.9 11 -11.4 96 96 Calm 29.86 1011 4 6.43736 0 0
7:35 am 07:35 Cloudy with Light Snow 11 -11.5 11 -11.9 97 97 W 3 6 29.87 1011 1.25 2.011675 0 0
7:55 am 07:55 Mostly Cloudy with Scattered Snow Showers 12 -11.2 11 -11.6 97 97 Calm 29.87 1012 2 3.21868 0 0
8:15 am 08:15 Partly Cloudy with Mist and Fog 13 -10.3 13 -10.5 98 98 WSW 5 7 29.87 1011 5 8.0467 0 0
8:35 am 08:35 Mostly Cloudy with Mist and Fog 15 -9.3 15 -9.6 98 98 WSW 5 7 29.85 1011 5 8.0467 0 0
8:55 am 08:55 Cloudy with Mist and Fog 15 -9.2 15 -9.7 96 96 SW 3 6 29.86 1011 4 6.43736 0 0
9:15 am 09:15 Partly Cloudy 16 -9 15 -9.6 95 95 WSW 5 7 29.86 1011 10 16.0934 0 0
9:35 am 09:35 Sunny 15 -9.5 13 -10.5 93 93 SW 5 7 29.87 1011 10 16.0934 0 0
9:55 am 09:55 Sunny 16 -8.8 14 -9.8 93 93 WSW 7 11 29.85 1011 7 11.26538 0 0
10:15 am 10:15 Sunny 17 -8.2 15 -9.5 90 90 WSW 9 15 29.85 1011 7 11.26538 0 0
10:35 am 10:35 Sunny with Light Snow 18 -8 15 -9.3 90 90 SW 8 13 29.85 1011 5 8.0467 0 0
10:55 am 10:55 Sunny with Light Snow 18 -7.6 15 -9.2 88 88 SW 9 15 29.85 1011 4 6.43736 0 0
11:15 am 11:15 Sunny with Mist and Fog 19 -7.3 16 -9 88 88 WSW 9 15 29.83 1010 5 8.0467 0 0
11:35 am 11:35 Sunny with Mist and Fog 21 -6.1 17 -8.5 83 83 WSW 13 20 29.82 1010 5 8.0467 0 0
11:55 am 11:55 Hazy 22 -5.7 17 -8.6 80 80 WSW 13 20 29.83 1010 5 8.0467 0 0
12:15 pm 12:15 Sunny 22 -5.5 16 -9 77 77 SW 12 19 29.83 1010 7 11.26538 0 0
12:35 pm 12:35 Sunny with Light Snow 22 -5.3 15 -9.3 74 74 WSW 13 20 29.81 1010 10 16.0934 0 0
12:55 pm 12:55 Sunny with Light Snow 23 -5.2 15 -9.2 74 74 W 18 30 29.81 1010 3 4.82802 0 0
1:15 pm 13:15 Sunny with Light Snow 24 -4.6 15 -9.3 70 70 WSW 16 26 29.8 1009 7 11.26538 0 0
1:35 pm 13:35 Sunny with Light Snow 25 -4 15 -9.4 66 66 WSW 14 22 29.8 1009 10 16.0934 0 0
1:55 pm 13:55 Sunny 25 -4.1 15 -9.5 66 66 W 17 28 29.81 1010 7 11.26538 0 0
2:15 pm 14:15 Sunny 25 -4 15 -9.5 66 66 W 15 24 29.81 1010 10 16.0934 0 0
2:35 pm 14:35 Sunny 26 -3.5 15 -9.4 64 64 W 18 30 29.81 1009 10 16.0934 0 0
2:55 pm 14:55 Sunny 27 -2.7 16 -9 62 62 WSW 12 19 29.81 1009 10 16.0934 0 0
3:15 pm 15:15 Sunny 28 -2.4 17 -8.6 63 63 WSW 14 22 29.81 1009 10 16.0934 0 0
3:35 pm 15:35 Sunny 29 -1.9 17 -8.5 61 61 WSW 17 28 29.81 1010 10 16.0934 0 0
3:55 pm 15:55 Sunny 29 -1.5 17 -8.6 59 59 W 16 26 29.82 1010 10 16.0934 0 0
4:15 pm 16:15 Sunny 29 -1.5 17 -8.5 59 59 W 15 24 29.83 1010 10 16.0934 0 0
4:35 pm 16:35 Sunny 29 -1.5 17 -8.1 61 61 W 13 20 29.83 1010 10 16.0934 0 0
4:55 pm 16:55 Sunny 29 -1.5 18 -8 62 62 W 12 19 29.84 1010 10 16.0934 0 0
5:15 pm 17:15 Sunny 29 -1.6 17 -8.3 61 61 W 12 19 29.85 1011 10 16.0934 0 0
5:35 pm 17:35 Sunny 29 -1.7 17 -8.5 60 60 W 12 19 29.87 1012 10 16.0934 0 0
6:15 pm 18:15 Sunny 27 -3 16 -8.9 64 64 WSW 7 11 29.89 1012 10 16.0934 0 0
6:35 pm 18:35 Clear 24 -4.5 15 -9.5 68 68 W 9 15 29.93 1013 10 16.0934 0 0
6:55 pm 18:55 Clear 24 -4.6 15 -9.6 68 68 W 8 13 29.93 1013 10 16.0934 0 0
7:15 pm 19:15 Clear 22 -5.3 14 -10.2 69 69 WSW 5 7 29.96 1014 10 16.0934 0 0
7:35 pm 19:35 Clear 20 -6.5 13 -10.6 73 73 Calm 29.98 1015 10 16.0934 0 0
7:55 pm 19:55 Clear 13 -10.7 8 -13.2 82 82 Calm 30.03 1017 10 16.0934 0 0
8:15 pm 20:15 Clear 19 -7.1 14 -10.2 79 79 Calm 30 1016 10 16.0934 0 0
8:35 pm 20:35 Clear 17 -8.5 11 -11.8 77 77 Calm 30.03 1017 10 16.0934 0 0
8:55 pm 20:55 Clear 12 -11.1 8 -13.4 83 83 Calm 30.05 1018 10 16.0934 0 0
9:15 pm 21:15 Clear 11 -11.8 8 -13.5 87 87 Calm 30.06 1018 10 16.0934 0 0
9:35 pm 21:35 Clear 8 -13.1 6 -14.5 89 89 Calm 30.09 1019 10 16.0934 0 0
9:55 pm 21:55 Clear 8 -13.2 5 -14.8 88 88 Calm 30.09 1019 10 16.0934 0 0
10:15 pm 22:15 Clear 7 -13.8 5 -15 91 91 Calm 30.1 1019 10 16.0934 0 0
10:35 pm 22:35 Clear 9 -12.8 7 -14.1 90 90 S 6 9 30.11 1020 10 16.0934 0 0
10:55 pm 22:55 Clear 9 -12.7 8 -13.5 94 94 Calm 30.11 1020 10 16.0934 0 0
11:15 pm 23:15 Clear 12 -11.1 11 -11.7 95 95 S 5 7 30.1 1019 10 16.0934 0 0
11:35 pm 23:35 Clear 9 -12.9 8 -13.6 95 95 SSW 5 7 30.12 1020 10 16.0934 0 0
11:55 pm 23:55 Clear 8 -13.6 6 -14.5 93 93 S 5 7 30.14 1021 10 16.0934 0 0

Powered by AerisWeather